This is the latest recevied weather packets stored in our database for station/object ES0THZ-13. If no packets are shown the sender has not sent any weather packets the latest 10 day(s).
| Time | Temp. | Humidity | Pressure | Rain* | Wind** | Luminosity | Snow |
|---|---|---|---|---|---|---|---|
| 1787886094 | 17.22° C | 85% | 1020 hPa | - | - | - | - |
| 1787885104 | 16.67° C | 85% | 1020.2 hPa | - | - | - | - |
| 1787883964 | 16.67° C | 85% | 1020.7 hPa | - | - | - | - |
| 1787882826 | 16.11° C | 85% | 1020 hPa | - | - | - | - |
| 1787881681 | 16.11° C | 84% | 1020.1 hPa | - | - | - | - |
| 1787880491 | 16.11° C | 84% | 1019.9 hPa | - | - | - | - |
| 1787879344 | 15.56° C | 84% | 1021.1 hPa | - | - | - | - |
| 1787878261 | 16.11° C | 84% | 1021 hPa | - | - | - | - |
| 1787877116 | 15.56° C | 84% | 1020 hPa | - | - | - | - |
| 1787875961 | 15° C | 84% | 1021 hPa | - | - | - | - |
| 1787874881 | 15° C | 83% | 1021.3 hPa | - | - | - | - |
| 1787873696 | 15° C | 83% | 1021.1 hPa | - | - | - | - |
| 1787872704 | 15° C | 83% | 1020.4 hPa | - | - | - | - |
| 1787871704 | 15.56° C | 83% | 1021.6 hPa | - | - | - | - |
| 1787870671 | 15° C | 83% | 1021.6 hPa | - | - | - | - |
| 1787869636 | 15° C | 83% | 1021.5 hPa | - | - | - | - |
| 1787868496 | 15° C | 83% | 1021.7 hPa | - | - | - | - |
| 1787867371 | 15° C | 82% | 1021.2 hPa | - | - | - | - |
| 1787866390 | 15° C | 82% | 1021.9 hPa | - | - | - | - |
| 1787865251 | 14.44° C | 82% | 1021.3 hPa | - | - | - | - |
| 1787864106 | 14.44° C | 81% | 1021.9 hPa | - | - | - | - |
| 1787863086 | 14.44° C | 81% | 1021.7 hPa | - | - | - | - |
| 1787861911 | 14.44° C | 80% | 1021.5 hPa | - | - | - | - |
| 1787860801 | 14.44° C | 80% | 1021.9 hPa | - | - | - | - |
| 1787859801 | 15° C | 80% | 1022.5 hPa | - | - | - | - |
* Rain since midnight (hover to see other rain measurements)
** Current wind speed in m/s (hover to see current wind gust speed)